Terminal Aerodrome Forecast
Issued by NWS Sterling, VA

Home | Current Version | Previous Version | Text Only | Print | Product List | Glossary On
Versions: 1 2 3 4 5 6 7 8 9 10 11 12 13 14 15
836
FTUS41 KLWX 132105 AAA
TAFMRB
TAF AMD
KMRB 132105Z 1321/1418 26007KT P6SM BKN120
     FM132200 24005KT P6SM VCSH BKN070 OVC130
     FM140000 15004KT P6SM VCSH OVC060
     FM140600 20005KT P6SM BKN060 OVC090
     FM141400 32012G20KT P6SM FEW040 SCT140=

USA.gov is the U.S. government's official web portal to all federal, state and local government web resources and services.